Home   Weather   Heinsberg   Past weeks

Flag for Germany Past Weather in Heinsberg, North Rhine-Westphalia, Germany — Yesterday and Last 2 Weeks

Now
48 °F

Scattered clouds.


Feels Like: 45 °F
Forecast: 35 / 51 °F
Wind: 8 mph from Southwest

Location: Geilenkirchen Airport

Current Time: Apr 25, 2017 at 6:41:06 pm

Latest Report: Apr 25, 2017 at 5:50 pm


Visibility: N/A

Pressure: 29.83 "Hg

Humidity: 58%

Dew Point: 34 °F

Location of HeinsbergLocation

Past Weather in Heinsberg — Graph

°F

Heinsberg Temperature Yesterday

Maximum temperature yesterday: 59 °F (at 2:50 pm)
Minimum temperature yesterday: 32 °F (at 5:50 am)
Average temperature yesterday: 48 °F

High & Low Weather Summary for the Past Weeks

 TemperatureHumidityPressure
High59 °F (Apr 10, 5:50 pm)93% (Apr 11, 5:50 am)30.66 "Hg (Apr 11, 5:50 am)
Low27 °F (Apr 20, 3:50 am)33% (Apr 20, 4:50 pm)29.74 "Hg (Apr 25, 12:50 am)
Average46 °F66%30.24 "Hg
* Reported Apr 10 4:50 pm — Apr 25 4:50 pm, Heinsberg, Weather by CustomWeather, © 2017

Note: Actual official high and low records may vary slightly from our data, if they occured in-between our weather recording intervals... More about our weather records

Advertising

Heinsberg Weather History for the Previous 24 Hours

Scroll right to see more
 ConditionsComfort  
Time TempWeatherWind HumidityBarometerVisibility
4:50 pm
Tue, Apr 25
45 °FPartly sunny.5 mph66%29.86 "HgN/A
3:50 pm46 °FScattered clouds.12 mph62%29.83 "HgN/A
2:50 pm45 °FScattered clouds.8 mph81%29.83 "HgN/A
2:08 pm45 °FRain showers. Scattered clouds.16 mph66%29.86 "Hg4 mi
1:50 pm46 °FScattered showers. Scattered clouds.17 mph62%29.83 "HgN/A
1:15 pm43 °FScattered clouds.16 mph81%29.83 "HgN/A
1:02 pm45 °FSprinkles. Broken clouds.20 mph66%29.83 "HgN/A
12:50 pm46 °FScattered showers. Broken clouds.21 mph57%29.83 "HgN/A
11:50 am46 °FScattered clouds.21 mph57%29.80 "HgN/A
10:50 am45 °FScattered clouds.20 mph61%29.80 "HgN/A
9:50 am43 °FScattered clouds.22 mph71%29.80 "HgN/A
8:50 am45 °FBroken clouds.16 mph76%29.77 "HgN/A
7:50 am43 °FPartly sunny.13 mph81%29.77 "HgN/A
6:50 am43 °FPartly sunny.13 mph93%29.74 "HgN/A
5:50 am43 °FPassing clouds.8 mph93%29.74 "HgN/A
3:50 am43 °FPartly cloudy.8 mph93%29.74 "Hg5 mi
2:50 am46 °FDrizzle. Overcast.12 mph82%29.74 "HgN/A
1:50 am50 °FPartly cloudy.8 mph67%29.74 "HgN/A
12:50 am50 °FClear.5 mph71%29.74 "Hg10 mi
11:50 pm
Mon, Apr 24
52 °FClear.3 mph72%29.77 "Hg10 mi
10:50 pm52 °FClear.6 mph67%29.80 "Hg10 mi
9:50 pm54 °FClear.8 mph58%29.80 "Hg10 mi
8:50 pm55 °FClear.10 mph51%29.83 "Hg10 mi
7:50 pm57 °FSunny.9 mph48%29.83 "Hg10 mi
6:50 pm57 °FSunny.15 mph44%29.86 "Hg10 mi
Weather by CustomWeather, © 2017

See weather overviewHow to use our weather pages